Location: Alsip
(41.6689°N, 87.7387°W)
Time: 08:24:57
(UTC+00:00)

GEOS 3 Rocket - Pass Details

Date: 25 October 2020
Orbit: 770 x 850 km, 115.0° (Epoch: 03 December)

Event Time Altitude Azimuth Distance (km) Brightness Sun altitude
Exits shadow 23:16:09 - 89° (E) 2,880 5.8 -4.8°
Reaches altitude 10° 23:17:34 10° 80° (E) 2,445 5.4 -5.1°
Maximum altitude 23:21:20 20° 35° (NE) 1,852 5.1 -5.8°
Drops below altitude 10° 23:25:08 10° 350° (N) 2,475 6.1 -6.5°
Sets 23:28:02 0° 334° (NNW) 3,419 7.1 -7.0°
